Home > Weather > Kobe > Past weeks

Flag for Japan Weather for the Past 2 Weeks in Kobe, Japan

Now
72 °F

Passing clouds.


Feels Like: 77 °F
Forecast: 53 / 77 °F
Wind: 8 mph from Southwest

Location: Osaka International Airport

Current Time: May 1, 2016 at 11:59:54 AM

Latest Report: May 1, 2016 at 11:00 AM


Visibility: N/A

Pressure: 30.01 "Hg

Humidity: 44%

Dew Point: 48 °F

Location of KobeLocation

Historic Weather in Kobe — Graph

°F

Kobe Temperature Yesterday

Maximum temperature yesterday: 70 °F (at 3:00 PM)
Minimum temperature yesterday: 43 °F (at 5:00 AM)
Average temperature yesterday: 61 °F

High & Low Weather Summary for the Past Weeks

 TemperatureHumidityPressure
High81 °F (Apr 26, 3:00 PM)100% (Apr 22, 6:00 AM)30.27 "Hg (Apr 22, 6:00 AM)
Low43 °F (Apr 30, 5:00 AM)14% (Apr 16, 1:00 PM)29.42 "Hg (Apr 28, 11:49 AM)
Average64 °F58%29.89 "Hg
* Reported Apr 16 10:00 AM — May 1 10:00 AM, Kobe, Weather by CustomWeather, © 2016

Note: Actual official high and low records may vary slightly from our data, if they occured in-between our weather recording intervals... More about our weather records

Advertising

Kobe Weather History for the Previous 24 Hours

Scroll right to see more
 ConditionsComfort  
Time TempWeatherWind HumidityBarometerVisibility
10:00 AM
Sun, May 1
70 °FPassing clouds.7 mph46%30.01 "HgN/A
9:00 AM68 °FSunny.2 mph49%30.01 "Hg10 mi
8:00 AM63 °FPassing clouds.3 mph64%30.04 "HgN/A
7:00 AM59 °FSunny.No wind72%30.01 "Hg10 mi
6:00 AM54 °FSunny.1 mph77%30.01 "Hg10 mi
5:00 AM54 °FClear.2 mph77%29.98 "Hg10 mi
8:00 PM
Sat, Apr 30
64 °FPassing clouds.5 mph46%29.95 "HgN/A
7:00 PM64 °FPassing clouds.7 mph40%29.95 "HgN/A
6:00 PM66 °FSunny.10 mph30%29.92 "Hg10 mi
5:00 PM68 °FPassing clouds.10 mph33%29.92 "HgN/A
4:00 PM68 °FPassing clouds.8 mph33%29.92 "HgN/A
3:00 PM70 °FPassing clouds.8 mph31%29.92 "HgN/A
2:00 PM68 °FScattered clouds.9 mph35%29.95 "HgN/A
1:00 PM68 °FPassing clouds.7 mph38%29.98 "HgN/A
12:00 PM66 °FPassing clouds.7 mph35%29.98 "HgN/A
11:00 AM64 °FSunny.3 mph40%30.01 "Hg10 mi
Weather by CustomWeather, © 2016

See weather overviewHow to use our weather pages